Location: Angely
(47.5646°N, 4.0211°E)
Time: 00:56:11
(UTC+00:00)

Daily predictions for brighter satellites

Satellite Brightness Start Highest point End
(mag) Time Altitude Azimuth Time Altitude Azimuth Time Altitude Azimuth
Cosmos 546 4.5 00:00:08 10° WNW 00:03:58 79° SW 00:03:58 79° SW
ATLAS CENTAUR R/B 3.9 00:02:32 10° NNW 00:04:12 18° NNE 00:06:34 10° ENE
Cosmos 292 Rocket 4.3 00:03:39 35° WSW 00:05:22 54° WNW 00:10:09 10° NNE
STARLINK-1104 4.1 00:04:55 10° WNW 00:08:12 45° WSW 00:08:12 45° WSW
Cosmos 1655 Rocket 4.4 00:07:30 31° SW 00:10:17 53° WNW 00:16:24 10° N
GEOS 3 Rocket 3.7 00:07:39 24° SE 00:10:54 77° NE 00:16:13 10° NW
Cosmos 1726 2.7 00:07:23 10° NNW 00:10:54 44° W 00:10:54 44° W
STARLINK-1188 4.5 00:08:35 10° NW 00:11:31 36° NNE 00:14:27 10° E
Cosmos 2058 Rocket 4.0 00:07:54 10° N 00:12:06 41° ENE 00:13:46 29° ESE
STARLINK-1235 4.2 00:09:17 10° NW 00:12:14 39° NNE 00:15:11 10° E
STARLINK-1187 4.4 00:09:42 10° NW 00:12:38 37° NNE 00:15:34 10° E
COSMOS 2455 3.2 00:11:40 38° SSE 00:13:33 52° ESE 00:19:22 10° NE
Meteor 1-29 3.6 00:10:21 10° NNE 00:13:32 44° E 00:13:32 44° E
SL-27 R/B 4.5 00:11:10 10° NW 00:13:10 19° W 00:13:10 19° W
STARLINK-1144 4.3 00:09:55 10° WNW 00:12:59 40° WSW 00:12:59 40° WSW
STARLINK-1191 4.4 00:11:04 10° NW 00:13:59 36° NNE 00:16:54 10° E
Cosmos 2228 2.9 00:10:25 10° N 00:14:43 81° E 00:15:32 57° SSE
Cosmos 2263 4.4 00:12:25 34° SW 00:14:51 67° WNW 00:20:28 10° NNE
STARLINK-1221 4.4 00:11:57 10° NW 00:14:52 36° NNE 00:17:47 10° E
SJ 16-02 4.2 00:13:13 10° NNE 00:15:10 13° NE 00:17:07 10° ENE
STARLINK-1222 4.4 00:12:49 10° NW 00:15:46 37° NNE 00:18:40 10° E
STARLINK-1214 4.4 00:13:45 10° NW 00:16:41 37° NNE 00:19:36 10° E
Meteor 2-15 Rocket 4.4 00:12:15 10° NNW 00:18:25 78° W 00:20:55 38° S
STARLINK-1103 4.5 00:14:55 10° WNW 00:17:46 35° W 00:17:46 35° W
Cosmos 1953 3.3 00:15:35 10° NNW 00:19:13 34° W 00:19:26 33° W
SL-14 R/B 4.4 00:18:39 30° ESE 00:19:19 32° E 00:22:47 10° NNE
Cosmos 1340 Rocket 3.3 00:17:01 10° NNW 00:20:52 44° W 00:21:08 43° WSW
Cosmos 1271 Rocket 4.5 00:21:40 20° W 00:22:36 22° WNW 00:25:42 10° NNW
Cosmos 1174 4.2 00:23:33 39° E 00:23:33 39° E 00:26:28 10° NE
Okean 1-7 Rocket 4.2 00:22:03 37° SE 00:23:14 47° E 00:27:33 10° NNE
Cosmos 1300 3.9 00:20:19 10° N 00:23:53 36° ENE 00:25:04 28° ESE
Cosmos 921 Rocket 4.4 00:23:34 23° ESE 00:24:31 25° E 00:28:02 10° NE
BREEZE M DEB (TANK) 4.0 00:26:49 21° E 00:26:49 21° E 00:28:02 10° E
Cosmos 1992 Rocket 4.4 00:25:15 33° SW 00:27:20 56° WNW 00:32:29 10° NNE
COSMOS 2487 2.4 00:23:59 10° NNW 00:27:18 71° W 00:27:18 71° W
Cosmos 1833 4.5 00:22:50 10° NW 00:28:16 49° WSW 00:29:45 39° SSW
Cosmos 1626 2.6 00:34:31 45° SE 00:35:02 49° E 00:38:39 10° NNE
STARLINK-60 4.2 00:36:27 32° E 00:36:27 32° E 00:38:30 10° ENE
Cosmos 1656 Rocket 3.9 00:33:52 32° SW 00:36:25 64° WNW 00:42:00 10° NNE
Cosmos 1606 Rocket 3.7 00:33:49 10° NNW 00:38:03 56° W 00:38:48 48° SW
FALCON 9 R/B 3.6 00:38:25 31° S 00:40:16 34° SSE 00:55:18 10° ESE
CZ-4 R/B 4.2 00:38:59 10° N 00:43:43 54° WNW 00:45:23 35° SW
MOZ.5/SAFIR/RUBIN 5/SL-8 4.4 00:44:16 24° SE 00:46:52 53° ENE 00:51:23 10° N
Cosmos 2297 Rocket 3.7 00:42:38 10° NNW 00:47:49 35° NE 00:52:58 10° ESE
Meteor 2-21 4.4 00:45:34 35° S 00:48:23 87° W 00:54:37 10° N
SL-4 R/B 2.4 00:49:12 45° SSW 00:50:24 59° SSE 00:55:05 10° ENE
PSLV R/B 4.3 00:47:55 10° N 00:52:21 48° WNW 00:53:53 34° WSW
NOSS 5 (C) 4.4 00:49:13 10° NW 00:52:25 89° N 00:53:31 44° SE
Cosmos 1437 3.4 00:52:48 40° E 00:52:51 40° E 00:55:43 10° NNE
Cosmos 1674 3.6 00:53:21 32° W 00:53:57 34° WNW 00:57:24 10° N
SL-19 R/B 4.2 00:52:05 10° NNE 00:57:30 88° ESE 01:00:03 34° SSW
ATLAS CENTAUR R/B 1.3 00:56:56 46° SSW 00:58:10 87° SE 01:02:21 10° NE
Cosmos 1777 Rocket 3.9 00:54:24 10° NNW 00:59:36 70° WSW 01:01:54 34° S
Timation 2 Rocket 3.9 00:53:30 10° NNW 00:59:55 87° WSW 01:04:30 19° SSE
SL-16 R/B 2.8 00:56:01 16° SSE 01:00:59 67° ENE 01:07:07 10° N
NOSS 3-4 (A) 3.6 00:57:30 25° WSW 01:01:06 68° NW 01:07:31 10° NE
NOSS 3-4 (C) 3.6 00:57:38 26° WSW 01:01:12 69° NW 01:07:38 10° NE
BREEZE-M R/B 3.7 01:01:07 35° SSE 01:01:22 36° SSE 01:04:27 10° E
Spot 1 4.3 01:00:54 40° S 01:02:27 66° WSW 01:07:18 10° NNW
Cosmos 1602 Rocket 4.5 01:01:57 25° SE 01:03:53 40° E 01:07:57 10° NNE
STARLINK-29 3.8 01:04:34 37° ESE 01:04:34 37° ESE 01:07:07 10° ENE
Cosmos 1455 4.3 01:03:08 10° NNE 01:06:13 23° ENE 01:09:16 10° SE
ATLAS 3B R/B 2.7 01:00:21 10° NW 01:07:05 65° WSW 01:12:43 16° SSE
CENTAUR R/B 3.7 01:03:23 10° NW 01:10:46 38° WSW 01:14:47 26° SSW
BREEZE-M DEB (TANK) 1.1 01:12:38 82° ESE 01:12:38 82° ESE 01:14:51 10° ENE
STARLINK-1206 4.4 01:09:09 10° WNW 01:13:13 52° NNE 01:17:17 10° E
Meteor 2-21 Rocket 4.5 01:11:40 30° SSW 01:14:48 72° W 01:21:01 10° N
Cosmos 1867 4.2 01:10:24 10° NW 01:15:23 37° WSW 01:16:44 32° SSW
Cosmos 1745 Rocket 4.0 01:12:45 27° S 01:16:17 81° E 01:22:27 10° N
Cosmos 1892 Rocket 4.3 01:14:51 31° WSW 01:16:18 41° WNW 01:20:30 10° N
STARLINK-1205 4.4 01:14:08 10° WNW 01:18:13 54° NNE 01:22:18 10° E
RESURS DK-1 2.3 01:19:17 41° SSW 01:20:41 89° ESE 01:24:51 10° NNE
STARLINK-1218 4.3 01:19:06 10° WNW 01:23:12 57° NNE 01:27:18 10° E
Cosmos 2227 Rocket 3.0 01:18:01 10° NNW 01:23:37 53° ENE 01:29:09 10° SE
Cosmos 1356 Rocket 3.3 01:19:50 10° NNW 01:24:00 81° W 01:25:49 33° S
Meteor 1-24 Rocket 3.9 01:22:03 29° SW 01:24:32 54° WNW 01:29:50 10° N
Cosmos 2369 Rocket 4.3 01:22:01 10° W 01:26:05 20° NW 01:30:09 10° N
CZ-2D R/B 2.2 01:21:57 10° NNE 01:27:14 71° ESE 01:30:15 26° S
Helios 1B rocket 4.3 01:24:22 10° NNW 01:27:23 20° WNW 01:29:11 15° W
STARLINK-1254 4.2 01:24:05 10° WNW 01:28:12 60° NNE 01:32:19 10° ESE
ADEOS II 3.5 01:25:07 10° NNE 01:29:47 31° E 01:34:07 11° SSE
ATLAS 2AS CENTAUR R/B 3.6 01:23:17 14° WSW 01:30:07 54° NW 01:37:51 10° NE
IKONOS-2 4.4 01:29:56 28° S 01:32:09 80° WSW 01:36:29 10° NNW
CZ-4C R/B 3.5 01:30:46 33° SSW 01:32:28 61° W 01:36:46 10° NNW
STARLINK-1231 4.1 01:29:05 10° WNW 01:33:13 63° NNE 01:37:20 10° ESE
STARLINK-1228 3.0 01:31:41 10° WNW 01:34:58 55° SW 01:38:15 10° SE
STARLINK-1234 2.8 01:33:07 10° WNW 01:36:11 55° SSW 01:37:02 38° SSE
Resurs 1-4 Rocket 2.1 01:31:41 10° NNE 01:37:00 87° ESE 01:40:11 25° SSW
STARLINK-1212 2.7 01:34:27 10° WNW 01:37:33 71° SSW 01:40:39 10° SE
STARLINK-1105 2.7 01:34:56 10° WNW 01:38:02 71° SSW 01:41:05 10° SE
STARLINK-1232 4.0 01:34:04 10° WNW 01:38:12 66° NNE 01:42:20 10° ESE
STARLINK-1209 3.0 01:35:23 10° WNW 01:38:28 50° SW 01:38:42 48° SSW
STARLINK-1247 2.7 01:35:50 10° WNW 01:38:57 70° SSW 01:42:03 10° SE
STARLINK-1227 2.7 01:36:18 10° WNW 01:39:24 69° SSW 01:42:28 10° SE
USA 81 4.1 01:36:19 22° S 01:39:47 77° E 01:45:05 10° N
STARLINK-1226 2.7 01:37:09 10° WNW 01:40:15 68° SSW 01:43:22 10° SE
STARLINK-52 2.9 01:39:41 47° SW 01:40:28 71° SSE 01:43:40 10° ENE
STARLINK-1215 2.7 01:38:06 10° WNW 01:41:12 67° SSW 01:44:18 10° SE
ARIANE 5 R/B 4.3 01:37:42 10° NE 01:41:49 24° E 01:45:52 10° SSE
Cosmos 1758 Rocket 4.2 01:39:23 19° SSE 01:42:14 49° E 01:46:28 10° NNE
STARLINK-1217 2.7 01:39:52 10° WNW 01:42:58 64° SSW 01:46:03 10° SE
STARLINK-1208 3.9 01:39:02 10° WNW 01:43:10 69° NNE 01:47:19 10° ESE
STARLINK-1229 2.7 01:40:47 10° WNW 01:43:53 63° SSW 01:46:59 10° SE
NPP 3.6 01:39:01 10° NNE 01:44:27 86° ESE 01:47:57 23° SSW
STARLINK-1270 2.7 01:41:39 10° WNW 01:44:45 62° SSW 01:47:50 10° SE
STARLINK-1189 2.8 01:43:30 10° WNW 01:46:35 60° SSW 01:49:40 10° SE
STARLINK-1188 2.8 01:44:23 10° WNW 01:47:28 59° SSW 01:50:33 10° SE
STARLINK-1235 3.0 01:45:07 10° WNW 01:48:06 46° SW 01:51:06 10° SE
STARLINK-1271 3.8 01:44:02 10° WNW 01:48:11 73° NNE 01:52:19 10° ESE
STARLINK-1187 2.9 01:45:31 10° WNW 01:48:32 51° SW 01:51:34 10° SE
Cosmos 1898 Rocket 3.9 01:43:35 10° NNW 01:48:56 68° ENE 01:54:13 10° SSE
STARLINK-1191 2.8 01:46:52 10° WNW 01:49:56 56° SSW 01:52:58 10° SE
Starlink 7 placeholder 3.5 01:49:43 25° NW 01:50:04 27° NNW 01:51:51 10° NE
Lacrosse 4 Rocket 3.7 01:46:36 10° NNW 01:50:25 28° NE 01:54:08 10° ESE
Meteor 1-21 Rocket 4.3 01:46:49 21° S 01:50:43 80° E 01:56:25 10° NNE
STARLINK-1221 2.8 01:47:44 10° WNW 01:50:47 55° SW 01:53:49 10° SE
STARLINK-1222 2.8 01:48:38 10° WNW 01:51:41 54° SSW 01:54:43 10° SE
Cosmos 1656 4.0 01:48:20 20° S 01:52:10 60° ESE 01:57:43 10° NNE
STARLINK-1214 2.9 01:49:33 10° WNW 01:52:35 53° SSW 01:55:37 10° SE
STARLINK-1154 3.7 01:49:01 10° WNW 01:53:10 77° NNE 01:57:19 10° ESE
CZ-4C R/B 3.4 01:50:43 14° SSE 01:54:08 30° ESE 01:59:02 10° NE
SJ 16-02 1.4 01:50:03 10° NNW 01:54:30 84° ENE 01:58:56 10° SSE
Cosmos 2084 3.5 01:52:18 26° SW 01:54:44 90° SSE 01:59:15 10° NE
Cosmos 468 Rocket 4.3 01:52:22 19° S 01:55:55 58° ESE 02:00:57 10° NNE
STARLINK-1197 3.7 01:53:59 10° WNW 01:58:09 82° NNE 02:02:18 10° ESE
Cosmos 1937 Rocket 4.0 01:54:00 10° NNW 01:59:11 61° ENE 02:04:24 10° SE
Cosmos 1300 4.4 01:56:36 10° NW 01:59:16 18° W 02:00:00 17° WSW
COSMOS 2455 3.9 01:54:47 13° WSW 01:59:42 37° NW 02:05:17 10° NNE
Meteor 2-10 Rocket 3.5 01:56:09 10° NNW 02:01:31 76° W 02:06:00 14° S
Cosmos 921 Rocket 4.0 02:00:21 20° WSW 02:02:38 34° WNW 02:06:37 10° N
STARLINK-1198 3.6 01:58:56 10° WNW 02:03:06 86° NNE 02:07:15 10° ESE
Cosmos 1709 Rocket 3.9 02:01:48 18° SSW 02:06:25 78° W 02:12:35 10° N
STARLINK-1199 3.6 02:03:57 10° WNW 02:08:07 89° SSW 02:12:16 10° ESE
Cosmos 1626 Rocket 4.5 02:06:42 20° WSW 02:08:55 33° WNW 02:12:53 10° N
Cosmos 1626 4.4 02:09:03 11° W 02:10:37 14° WNW 02:12:36 10° NW
STARLINK-60 4.1 02:08:52 12° W 02:11:36 41° NNW 02:14:41 10° ENE
STARLINK-1210 3.5 02:08:55 10° WNW 02:13:05 84° SSW 02:17:14 10° ESE
STARLINK-1320 3.2 02:14:52 26° SSW 02:16:17 50° SE 02:19:19 10° ENE
Cosmos 2219 3.5 02:11:02 10° NW 02:16:27 47° WSW 02:21:48 10° S
STARLINK-1322 3.2 02:15:11 26° SSW 02:16:37 50° SSE 02:19:40 10° ENE
STARLINK-1324 3.2 02:15:32 26° SSW 02:16:59 51° SE 02:20:01 10° ENE
STARLINK-1294 3.2 02:15:47 26° SSW 02:17:16 51° SE 02:20:19 10° ENE
STARLINK-1261 3.2 02:16:09 26° SSW 02:17:38 51° SE 02:20:41 10° ENE
STARLINK-1325 3.2 02:16:30 25° SSW 02:17:59 52° SE 02:21:02 10° ENE
STARLINK-1219 3.5 02:13:54 10° WNW 02:18:04 79° SSW 02:22:12 10° SE
STARLINK-1333 3.2 02:16:48 25° SSW 02:18:18 52° SE 02:21:21 10° ENE
STARLINK-1334 3.2 02:17:07 25° SSW 02:18:38 52° SSE 02:21:41 10° ENE
STARLINK-1326 3.2 02:17:28 25° SSW 02:18:59 53° SE 02:22:02 10° ENE
STARLINK-1323 3.1 02:17:47 25° SSW 02:19:19 53° SE 02:22:22 10° ENE
Cosmos 1980 Rocket 3.7 02:14:42 10° SSE 02:19:32 31° ESE 02:24:24 10° NE
STARLINK-1338 3.5 02:17:39 23° SSW 02:19:33 51° SE 02:22:56 10° ENE
STARLINK-1349 3.1 02:18:06 25° SSW 02:19:39 53° SSE 02:22:42 10° ENE
STARLINK-1336 3.1 02:18:28 25° SW 02:20:01 54° SSE 02:23:05 10° ENE
STARLINK-1331 3.1 02:18:45 25° SW 02:20:20 54° SE 02:23:23 10° ENE
STARLINK-1344 3.1 02:19:05 24° SW 02:20:40 54° SSE 02:23:43 10° ENE
STARLINK-1343 3.1 02:19:25 24° SW 02:21:01 55° SE 02:24:04 10° ENE
STARLINK-1346 3.1 02:19:43 24° SW 02:21:21 55° SSE 02:24:27 10° ENE
STARLINK-1328 3.1 02:20:05 24° SW 02:21:42 56° SSE 02:24:46 10° ENE
STARLINK-1354 3.1 02:20:22 24° SW 02:22:00 56° SSE 02:25:04 10° ENE
STARLINK-1347 3.1 02:20:44 24° SW 02:22:22 56° SSE 02:25:26 10° ENE
Cosmos 1328 3.8 02:19:19 17° S 02:22:23 87° W 02:26:24 10° N
CRYOSAT 2 4.4 02:17:31 10° N 02:22:28 85° E 02:27:17 10° S
STARLINK-1357 3.1 02:21:02 24° SW 02:22:41 57° SSE 02:25:46 10° ENE
STARLINK-1211 3.5 02:18:52 10° WNW 02:23:01 74° SSW 02:27:08 10° SE
STARLINK-1335 3.1 02:21:22 24° SW 02:23:02 57° SSE 02:26:06 10° ENE
STARLINK-1327 3.0 02:21:41 23° SW 02:23:21 57° SSE 02:26:26 10° ENE
STARLINK-1371 3.4 02:21:31 21° SW 02:23:34 55° SE 02:27:00 10° ENE
STARLINK-1340 3.0 02:22:01 23° SW 02:23:42 58° SSE 02:26:47 10° ENE
STARLINK-1356 3.0 02:22:21 23° SW 02:24:03 58° SSE 02:27:07 10° ENE
STARLINK-1345 3.0 02:22:41 23° SW 02:24:24 59° SSE 02:27:28 10° ENE
STARLINK-1355 3.0 02:22:59 23° SW 02:24:43 59° SSE 02:27:48 10° ENE
ERS-2 2.7 02:21:12 10° SSE 02:24:47 59° ENE 02:28:25 10° N
STARLINK-1321 3.0 02:23:18 23° SW 02:25:02 59° SSE 02:28:08 10° ENE
STARLINK-1358 3.0 02:23:39 23° SW 02:25:24 60° SSE 02:28:30 10° ENE
STARLINK-1341 3.4 02:23:29 21° SW 02:25:36 57° SSE 02:29:03 10° ENE
STARLINK-1332 3.0 02:23:57 22° SW 02:25:43 60° SSE 02:28:49 10° ENE
STARLINK-1348 3.0 02:24:18 22° SW 02:26:05 61° SSE 02:29:10 10° ENE
STARLINK-1330 3.0 02:24:36 22° SW 02:26:24 61° SSE 02:29:29 10° ENE
STARLINK-1363 3.0 02:24:56 22° SW 02:26:44 61° SSE 02:29:49 10° ENE
STARLINK-1337 3.0 02:25:15 22° SW 02:27:04 62° SSE 02:30:10 10° ENE
STARLINK-1342 3.0 02:25:35 22° SW 02:27:25 62° SSE 02:30:30 10° ENE
STARLINK-1374 3.4 02:25:26 20° SW 02:27:39 59° SSE 02:31:07 10° ENE
STARLINK-1364 3.0 02:25:55 22° SW 02:27:45 63° SSE 02:30:50 10° ENE
STARLINK-1245 3.5 02:23:52 10° WNW 02:28:00 69° SSW 02:32:07 10° SE
STARLINK-1376 3.0 02:26:15 21° SW 02:28:06 63° SSE 02:31:12 10° ENE
IRS-1C 4.2 02:22:49 10° NNE 02:28:12 80° ESE 02:33:25 11° SSW
STARLINK-1360 2.9 02:26:30 21° SW 02:28:22 63° SSE 02:31:29 10° ENE
AQUA 4.4 02:24:02 10° N 02:28:35 46° WNW 02:32:11 16° SW
STARLINK-1361 2.9 02:26:56 21° SW 02:28:48 64° SSE 02:31:54 10° ENE
STARLINK-1367 3.0 02:27:10 21° SW 02:29:04 64° SSE 02:32:12 10° ENE
STARLINK-1366 2.9 02:27:33 21° SW 02:29:27 65° SSE 02:32:33 10° ENE
STARLINK-1339 3.3 02:27:27 19° SW 02:29:44 61° SSE 02:33:12 10° ENE
SL-4 R/B 2.9 02:25:28 10° W 02:30:15 59° NNW 02:34:50 10° ENE
CZ-4B R/B 4.1 02:26:13 10° N 02:31:04 45° WNW 02:35:13 14° SW
STARLINK-1377 3.3 02:29:28 19° SW 02:31:49 63° SSE 02:35:18 10° ENE
Cosmos 2297 Rocket 2.5 02:26:39 10° NW 02:31:59 44° WSW 02:37:18 10° S
STARLINK-1233 3.6 02:28:51 10° WNW 02:32:57 64° SW 02:37:03 10° SE
STARLINK-1203 4.5 02:28:56 10° WNW 02:33:04 54° NNE 02:37:12 10° E
STARLINK-1353 3.2 02:31:17 18° SW 02:33:41 65° SSE 02:37:08 10° ENE
STARLINK-1143 4.5 02:31:07 10° WNW 02:35:12 54° NNE 02:39:16 10° E
STARLINK-1375 3.2 02:33:04 18° SW 02:35:33 67° SSE 02:39:00 10° ENE
Cosmos 2082 3.6 02:30:08 10° NNW 02:35:49 78° WSW 02:41:26 10° SSE
ATLAS CENTAUR R/B 3.5 02:34:32 10° W 02:37:34 19° NW 02:40:29 10° NNE
Cosmos 540 Rocket 4.0 02:32:35 10° S 02:37:37 57° ESE 02:42:39 10° NNE
Cosmos 990 Rocket 4.3 02:32:46 10° NNW 02:37:49 47° WSW 02:42:49 10° S
STARLINK-1350 3.2 02:35:22 17° SW 02:37:56 70° SSE 02:41:25 10° ENE
STARLINK-1204 3.6 02:33:51 10° WNW 02:37:57 60° SW 02:42:01 10° SE
CBERS-1 4.3 02:32:59 10° N 02:37:59 56° WNW 02:42:29 13° SW
FALCON 9 DEB 3.4 02:35:24 13° WSW 02:38:26 64° NNW 02:41:53 10° ENE
STARLINK-1241 4.4 02:36:05 10° WNW 02:40:10 56° NNE 02:44:16 10° E
STARLINK-29 3.9 02:37:09 10° W 02:40:13 44° NNW 02:43:18 10° ENE
OE (NEXTSAT) 4.3 02:36:54 10° W 02:40:18 69° S 02:43:46 10° E
STARLINK-1352 3.2 02:37:39 16° SW 02:40:21 73° SSE 02:43:52 10° ENE
Landsat 5 4.5 02:37:20 10° SSE 02:41:42 54° ENE 02:46:08 10° N
Cosmos 1455 3.3 02:38:37 10° NNW 02:41:48 27° W 02:44:16 14° SW
Cosmos 1825 Rocket 3.9 02:38:21 14° SSW 02:41:50 48° WNW 02:46:03 10° N
Cosmos 2278 4.3 02:36:32 10° S 02:42:00 55° ESE 02:47:32 10° NE
STARLINK-1368 3.2 02:39:45 15° SW 02:42:32 76° SSE 02:46:04 10° ENE
CZ-2D R/B 4.1 02:38:29 10° NNE 02:42:32 55° E 02:46:39 10° S
STARLINK-1238 3.7 02:38:49 10° WNW 02:42:53 55° SW 02:46:56 10° SE
Meteor 1-11 4.3 02:38:40 10° S 02:44:19 86° E 02:49:57 10° NNE
USA 234 4.4 02:38:34 10° ENE 02:44:24 33° SE 02:50:11 10° SSW
STARLINK-1369 3.1 02:41:37 15° SW 02:44:26 79° SSE 02:47:57 10° ENE
Meteor 1-28 Rocket 3.2 02:40:50 10° SSE 02:44:37 87° WSW 02:48:25 10° NNW
SL-16 R/B 3.7 02:41:07 13° SW 02:45:06 23° W 02:49:55 10° NW
STARLINK-1239 4.3 02:41:04 10° WNW 02:45:10 59° NNE 02:49:16 10° E
ATLAS CENTAUR R/B 2.9 02:43:14 10° WNW 02:46:23 35° SW 02:53:10 10° SSE
STARLINK-1372 3.2 02:43:57 14° WSW 02:46:55 82° SSE 02:50:27 10° ENE
Cosmos 2263 Rocket 3.9 02:42:25 10° NNW 02:47:39 38° NE 02:52:49 10° ESE
Cosmos 2074 Rocket 4.1 02:41:26 10° S 02:47:44 89° ESE 02:54:04 10° N
STARLINK-1201 3.7 02:43:50 10° WNW 02:47:52 51° SW 02:51:52 10° SE
STARLINK-1378 3.2 02:46:05 13° WSW 02:49:08 84° SSE 02:52:40 10° ENE
Cosmos 372 Rocket 4.2 02:44:24 10° NNW 02:49:32 73° ENE 02:54:41 10° SSE
STARLINK-1329 3.2 02:46:35 13° WSW 02:49:40 85° SSE 02:53:13 10° ENE
Cosmos 841 Rocket 3.6 02:44:38 10° SSW 02:49:53 78° ESE 02:55:08 10° NNE
GP-B 4.1 02:46:04 10° NNW 02:49:59 31° W 02:53:37 11° SW
STARLINK-1240 4.2 02:46:03 10° WNW 02:50:10 61° NNE 02:54:17 10° ESE
STARLINK-1365 3.2 02:47:17 13° WSW 02:50:23 88° SSE 02:53:55 10° ENE
IRS-1D 4.2 02:45:46 10° N 02:50:51 45° WNW 02:55:45 11° SW
STARLINK-1379 3.2 02:48:13 13° WSW 02:51:21 87° SSE 02:54:55 10° ENE
STARLINK-1362 3.2 02:48:47 13° WSW 02:51:57 87° SE 02:55:30 10° ENE
STARLINK-1206 3.8 02:48:49 10° WNW 02:52:50 47° SW 02:56:48 10° SE
Cosmos-2242 3.8 02:49:35 10° NNW 02:53:24 32° W 02:57:10 10° SSW
Cosmos 1869 4.4 02:50:17 10° N 02:54:05 46° ENE 02:57:49 10° SSE
STARLINK-1373 3.2 02:50:59 12° WSW 02:54:15 90° N 02:57:49 10° ENE
COBE Rocket 3.9 02:49:46 10° S 02:54:40 71° W 02:59:44 10° NNW
Cosmos 1400 Rocket 2.9 02:50:36 10° NNW 02:54:41 68° W 02:58:47 10° S
STARLINK-1216 4.1 02:51:02 10° WNW 02:55:09 65° NNE 02:59:17 10° ESE
Cosmos 2221 3.2 02:51:11 10° N 02:55:29 59° ENE 02:59:46 10° SSE
STARLINK-1390 3.2 02:52:59 11° WSW 02:56:18 87° NNW 02:59:52 10° ENE
NOSS 7 (E) 4.3 02:53:04 12° SW 02:56:21 90° E 02:59:27 10° NE
ATLAS 3B R/B 4.3 02:53:35 10° WNW 02:56:33 13° WSW 02:59:35 10° SW
STARLINK-1205 3.9 02:53:49 10° WNW 02:57:47 44° SW 03:01:43 10° SE
Cosmos 2184 Rocket 4.0 02:53:05 10° SSW 02:59:16 80° W 03:05:28 10° N
STARLINK-1237 4.0 02:56:01 10° WNW 03:00:09 68° NNE 03:04:17 10° ESE
SL-08 R/B 3.7 02:55:45 10° S 03:00:14 43° W 03:04:40 10° NNW
CZ-4C R/B 3.1 02:56:58 10° SSE 03:00:34 89° WNW 03:04:13 10° NNW
STARLINK-1218 4.0 02:58:49 10° WNW 03:02:43 40° SW 03:06:36 10° SSE
STARLINK-1202 3.9 03:00:59 10° WNW 03:05:09 72° NNE 03:09:18 10° ESE
CZ-2D R/B 3.8 03:03:03 10° NNW 03:06:45 20° WNW 03:10:26 10° WSW
Cosmos 2227 Rocket 3.1 03:02:38 10° NW 03:07:21 27° WSW 03:12:02 10° SSW
STARLINK-1254 4.1 03:03:50 10° WNW 03:07:41 37° SW 03:11:31 10° SSE
Cosmos 1763 Rocket 4.1 03:03:55 10° SW 03:08:47 43° WNW 03:13:39 10° N
ADEOS II 2.8 03:04:40 10° N 03:09:34 40° WNW 03:14:26 10° SW
Cosmos 1697 Rocket 2.9 03:05:15 10° SW 03:10:52 65° WNW 03:16:32 10° NNE
Cosmos 2150 Rocket 4.1 03:06:21 10° NNW 03:11:36 85° ENE 03:16:44 10° SSE
STARLINK-1231 4.2 03:08:52 10° WNW 03:12:39 35° SW 03:16:25 10° SSE
Cosmos 1315 Rocket 3.0 03:10:49 10° N 03:14:45 74° ENE 03:18:39 10° SSE
STARLINK-1246 3.8 03:10:57 10° WNW 03:15:07 80° NNE 03:19:16 10° ESE
Resurs 1-4 Rocket 4.0 03:12:54 10° NNW 03:16:09 17° NW 03:19:24 10° W
CZ-2C R/B 2.7 03:12:46 10° NNE 03:16:30 83° ESE 03:20:13 10° SSW
STARLINK-52 4.4 03:13:48 10° W 03:16:47 34° NNW 03:19:47 10° ENE
SL-16 R/B 4.1 03:12:18 10° SSE 03:16:58 27° ESE 03:21:39 10° NE
MSX 4.4 03:11:42 10° NNE 03:17:26 62° ESE 03:23:07 10° S
STARLINK-1232 4.3 03:13:54 10° WNW 03:17:36 32° SW 03:21:18 10° SSE
STARLINK-1224 3.7 03:15:56 10° WNW 03:20:06 85° NNE 03:24:15 10° ESE
H-2A R/B 2.4 03:16:54 10° S 03:21:03 47° W 03:25:20 10° NNW
ARIANE 5 R/B 2.9 03:16:18 10° N 03:21:11 48° WNW 03:25:59 10° SW
